Preview of NWS' New Version of Forecast
This preview is not operational and should not be used for support decisions.

Regional Weather Roundup (RWR)

Issued by National Weather Service (NWS)

                            
000
ASUS46 KSEW 190310
RWRWA 

WASHINGTON REGIONAL WEATHER ROUNDUP
NATIONAL WEATHER SERVICE SEATTLE WA
800 PM PDT THU APR 18 2019

NOTE:"FAIR" INDICATES FEW OR NO CLOUDS BELOW 12,000 FEET WITH NO 
SIGNIFICANT WEATHER AND/OR OBSTRUCTIONS TO VISIBILITY.

WAZ507-509-555>559-190400-
SEATTLE, TACOMA, EVERETT, AND VICINITY
  
CITY           SKY/WX    TMP DP  RH WIND       PRES   REMARKS
EVERETT        LGT RAIN  56  51  84 SW7       30.07S                  
BOEING FIELD   LGT RAIN  60  52  74 SW8       30.07S                  
RENTON         LGT RAIN  61  55  81 S7        30.08R                  
SEATAC AIRPORT LGT RAIN  58  52  80 SW10      30.08S                  
JBLM-MCCHORD   LGT RAIN  56  56 100 W8        30.09F                  
PUYALLUP       DRIZZLE   57  57 100 CALM      30.10R                  
BREMERTON      LGT RAIN  55  52  89 S10       30.06F                  
JBLM-FT LEWIS  CLOUDY    56  56 100 W8        30.08S                  
TACOMA NARROWS LGT RAIN  56  51  84 VRB7      30.09F                  
$$
 
WAZ001-503-506-510-514-515-190400-
NORTH INTERIOR
  
CITY           SKY/WX    TMP DP  RH WIND       PRES   REMARKS
BELLINGHAM     LGT RAIN  53  51  93 E3        30.05F FOG              
FRIDAY HARBOR  LGT RAIN  53  51  93 CALM      30.06F FOG              
EASTSOUND      LGT RAIN  54  54 100 S6        30.04F                  
PORT ANGELES   CLOUDY    52  50  93 CALM      30.06F                  
EDIZ HOOK      CLOUDY    49  49  99 CALM      30.06F                  
PORT TOWNSEND  CLOUDY    54  50  87 NW5       30.05F                  
NAS WHIDBEY    LGT RAIN  53  49  86 SW5       30.10S                  
ARLINGTON      CLOUDY    58  53  84 S6        30.06S                  
BURLINGTON     CLOUDY    54  54 100 NE7       30.06F                  
$$
 
WAZ020-022-039-040-504-511-512-190400-
SOUTHWEST INTERIOR
  
CITY           SKY/WX    TMP DP  RH WIND       PRES   REMARKS
SHELTON        CLOUDY    54  51  90 SW15      30.07F                  
OLYMPIA        CLOUDY    58  53  84 SW5       30.09S                  
CHEHALIS       CLOUDY    59  57  94 N5        30.10S                  
KELSO          MOCLDY    61  51  70 NW5       30.10S                  
VANCOUVER      PTCLDY    71  50  47 CALM      30.04F                  
SCAPPOOSE, OR  MOCLDY    70  52  52 NW7       30.05S                  
PORTLAND, OR   PTCLDY    66  49  54 NW6       30.05S                  
$$
 
WAZ021-516-517-190400-
WASHINGTON COAST
  
CITY           SKY/WX    TMP DP  RH WIND       PRES   REMARKS
FORKS          LGT RAIN  51  51 100 VRB6      30.06F VSB 3/4          
HOQUIAM        FOG       52  52 100 SW3       30.11F VSB 1            
ASTORIA, OR    CLOUDY    54  51  90 S3        30.11F                  
$$
 
WAZ019-023-024-040-567>569-190400-
CASCADE MOUNTAINS AND COLUMBIA GORGE
  
CITY           SKY/WX    TMP DP  RH WIND       PRES   REMARKS
STAMPEDE PASS  CLOUDY    50  44  80 CALM      30.11F                  
TROUTDALE, OR  PTCLDY    70  52  52 N3        30.04F                  
HOOD RIVER, OR PTCLDY    70  46  43 MISG      30.04S                  
THE DALLES, OR PTCLDY    72  50  45 W6        30.00F                  
$$

WAZ026-027-041>044-520-521-190400-
EAST SLOPES
  
CITY           SKY/WX    TMP DP  RH WIND       PRES   REMARKS
OMAK           MOCLDY    65  47  52 S10       29.97F                  
WENATCHEE      MOCLDY    62  48  60 NW8       30.01F                  
ELLENSBURG     PTCLDY    61  47  59 NW8       30.03F                  
YAKIMA         PTCLDY    69  49  48 CALM      30.00F                  
SUNNYSIDE ARPT PTCLDY    70  53  54 SW3       29.99F                  
YAKIMA TC      FAIR      65  48  55 CALM      29.99F                  
$$

WAZ028-034-035-190400-
COLUMBIA BASIN
  
CITY           SKY/WX    TMP DP  RH WIND       PRES   REMARKS
EPHRATA        PTCLDY    63  50  62 S7        29.99F                  
MOSES LAKE     PTCLDY    70  48  45 S6        30.00F                  
PASCO          PTCLDY    75  48  38 SE9       29.99F                  
RICHLAND ARPT  PTCLDY    75  50  40 SE6       29.99                   
HERMISTON, OR  PTCLDY    70  52  52 SE3       30.00F                  
$$

WAZ036>038-190400-
NORTHEAST WASHINGTON
  
CITY           SKY/WX    TMP DP  RH WIND       PRES   REMARKS
SPOKANE GEIGER MOCLDY    62  45  53 S7        30.06F                  
SPOKANE FELTS  CLOUDY    61  47  59 CALM      30.05F                  
FAIRCHILD AFB  MOCLDY    59  47  65 SW5       30.06F                  
COEURDALENE,ID CLOUDY    59  47  64 S7        30.07F                  
DEER PARK      CLOUDY    55  44  66 NE6       30.06F                  
$$

WAZ029>033-190400-
SOUTHEAST WASHINGTON
  
CITY           SKY/WX    TMP DP  RH WIND       PRES   REMARKS
PULLMAN        PTCLDY    62  46  55 SW3       30.11F                  
LEWISTON, ID   PTCLDY    66  48  52 SE5       30.06F                  
WALLA WALLA    CLEAR     67  52  58 E7        30.03F                  
PENDLETON, OR  PTCLDY    67  52  58 NE7       30.03F                  
$$